#S.N.C.L,B084.PB.LDD.
#year,mon,day,hour,minute,second,value
2010,1,7,0,3,52.810000,2016280
2010,1,7,1,3,52.810000,2015490
2010,1,7,2,3,52.810000,2015370
2010,1,7,3,3,52.810000,2015770
2010,1,7,4,3,52.810000,2016500
2010,1,7,5,3,52.810000,2017380
2010,1,7,6,3,52.810000,2018140
2010,1,7,7,3,52.810000,2018650
2010,1,7,8,3,52.810000,2018740
2010,1,7,9,3,52.810000,2018520
2010,1,7,10,3,52.810000,2018190
2010,1,7,11,3,52.810000,2017820
2010,1,7,12,3,52.810000,2017470
2010,1,7,13,3,52.810000,2017290
2010,1,7,14,3,52.810000,2017500
2010,1,7,15,3,52.810000,2018030
2010,1,7,16,3,52.810000,2018810
2010,1,7,17,3,52.810000,2019720
2010,1,7,18,3,52.810000,2020460
2010,1,7,19,3,52.810000,2020850
2010,1,7,20,3,52.810000,2020530
2010,1,7,21,3,52.810000,2019720
2010,1,7,22,3,52.810000,2018680
2010,1,7,23,3,52.810000,2017530
2010,1,8,0,3,52.810000,2016390
2010,1,8,1,3,52.810000,2015310
2010,1,8,2,3,52.810000,2014680
2010,1,8,3,3,52.810000,2014610
2010,1,8,4,3,52.810000,2014940
2010,1,8,5,3,52.810000,2015610
2010,1,8,6,3,52.810000,2016550
2010,1,8,7,3,52.810000,2017520
2010,1,8,8,3,52.810000,2018400
2010,1,8,9,3,52.810000,2018950
2010,1,8,10,3,52.810000,2019320
2010,1,8,11,3,52.810000,2019440
2010,1,8,12,3,52.810000,2019410
2010,1,8,13,3,52.810000,2019320
2010,1,8,14,3,52.810000,2019340
2010,1,8,15,3,52.810000,2019620
2010,1,8,16,3,52.810000,2020110
2010,1,8,17,3,52.810000,2020820
2010,1,8,18,3,52.810000,2021580
2010,1,8,19,3,52.810000,2022070
2010,1,8,20,3,52.810000,2022100
2010,1,8,21,3,52.810000,2021800
2010,1,8,22,3,52.810000,2021190
2010,1,8,23,3,52.810000,2020340
2010,1,9,0,3,52.810000,2019280
2010,1,9,1,3,52.810000,2018140
2010,1,9,2,3,52.810000,2017060
2010,1,9,3,3,52.810000,2016320
2010,1,9,4,3,52.810000,2016000
2010,1,9,5,3,52.810000,2016140
2010,1,9,6,3,52.810000,2016800
2010,1,9,7,3,52.810000,2017780
2010,1,9,8,3,52.810000,2018840
2010,1,9,9,3,52.810000,2019990
2010,1,9,10,3,52.810000,2020940
2010,1,9,11,3,52.810000,2021540
2010,1,9,12,3,52.810000,2021820
2010,1,9,13,3,52.810000,2021820
2010,1,9,14,3,52.810000,2021670
2010,1,9,15,3,52.810000,2021520
2010,1,9,16,3,52.810000,2021510
2010,1,9,17,3,52.810000,2021750
2010,1,9,18,3,52.810000,2022160
2010,1,9,19,3,52.810000,2022510
2010,1,9,20,3,52.810000,2022670
2010,1,9,21,3,52.810000,2022620
2010,1,9,22,3,52.810000,2022300
2010,1,9,23,3,52.810000,2021730
2010,1,10,0,3,52.810000,2020670
2010,1,10,1,3,52.810000,2019390
2010,1,10,2,3,52.810000,2017990
2010,1,10,3,3,52.810000,2016760
2010,1,10,4,3,52.810000,2015790
2010,1,10,5,3,52.810000,2015220
2010,1,10,6,3,52.810000,2015300
2010,1,10,7,3,52.810000,2015910
2010,1,10,8,3,52.810000,2017010
2010,1,10,9,3,52.810000,2018260
2010,1,10,10,3,52.810000,2019570
2010,1,10,11,3,52.810000,2020770
2010,1,10,12,3,52.810000,2021540
2010,1,10,13,3,52.810000,2021880
2010,1,10,14,3,52.810000,2021820
2010,1,10,15,3,52.810000,2021590
2010,1,10,16,3,52.810000,2021290
2010,1,10,17,3,52.810000,2021210
2010,1,10,18,3,52.810000,2021290
2010,1,10,19,3,52.810000,2021470
2010,1,10,20,3,52.810000,2021640
2010,1,10,21,3,52.810000,2021840
2010,1,10,22,3,52.810000,2021980
2010,1,10,23,3,52.810000,2021880
2010,1,11,0,3,52.810000,2021330
2010,1,11,1,3,52.810000,2020340
2010,1,11,2,3,52.810000,2019040
2010,1,11,3,3,52.810000,2017620
2010,1,11,4,3,52.810000,2016340
2010,1,11,5,3,52.810000,2015380
2010,1,11,6,3,52.810000,2014940
2010,1,11,7,3,52.810000,2015140
2010,1,11,8,3,52.810000,2015930
2010,1,11,9,3,52.810000,2017340
2010,1,11,10,3,52.810000,2019120
2010,1,11,11,3,52.810000,2020780
2010,1,11,12,3,52.810000,2022090
2010,1,11,13,3,52.810000,2022860
2010,1,11,14,3,52.810000,2023150
2010,1,11,15,3,52.810000,2022950
2010,1,11,16,3,52.810000,2022490
2010,1,11,17,3,52.810000,2022110
2010,1,11,18,3,52.810000,2021890
2010,1,11,19,3,52.810000,2021880
2010,1,11,20,3,52.810000,2021910
2010,1,11,21,3,52.810000,2022160
2010,1,11,22,3,52.810000,2022580
2010,1,11,23,3,52.810000,2022850
2010,1,12,0,3,52.810000,2022670
2010,1,12,1,3,52.810000,2021960
2010,1,12,2,3,52.810000,2020800
2010,1,12,3,3,52.810000,2019320
2010,1,12,4,3,52.810000,2017610
2010,1,12,5,3,52.810000,2016110
2010,1,12,6,3,52.810000,2015070
2010,1,12,7,3,52.810000,2014730
2010,1,12,8,3,52.810000,2015150
2010,1,12,9,3,52.810000,2016320
2010,1,12,10,3,52.810000,2018070
2010,1,12,11,3,52.810000,2019880
2010,1,12,12,3,52.810000,2021470
2010,1,12,13,3,52.810000,2022650
2010,1,12,14,3,52.810000,2023270
2010,1,12,15,3,52.810000,2023220
2010,1,12,16,3,52.810000,2022790
2010,1,12,17,3,52.810000,2022160
2010,1,12,18,3,52.810000,2021520
2010,1,12,19,3,52.810000,2021220
2010,1,12,20,3,52.810000,2021080
2010,1,12,21,3,52.810000,2021310
2010,1,12,22,3,52.810000,2021820
2010,1,12,23,3,52.810000,2022490
2010,1,13,0,3,52.810000,2022810
2010,1,13,1,3,52.810000,2022470
2010,1,13,2,3,52.810000,2021520
2010,1,13,3,3,52.810000,2019950
2010,1,13,4,3,52.810000,2018030
2010,1,13,5,3,52.810000,2016020
2010,1,13,6,3,52.810000,2014340
2010,1,13,7,3,52.810000,2013410
2010,1,13,8,3,52.810000,2013230
2010,1,13,9,3,52.810000,2013750
2010,1,13,10,3,52.810000,2015090
2010,1,13,11,3,52.810000,2016760
2010,1,13,12,3,52.810000,2018520
2010,1,13,13,3,52.810000,2020030
2010,1,13,14,3,52.810000,2020940
2010,1,13,15,3,52.810000,2021330
2010,1,13,16,3,52.810000,2021100
2010,1,13,17,3,52.810000,2020430
2010,1,13,18,3,52.810000,2019500
2010,1,13,19,3,52.810000,2018740
2010,1,13,20,3,52.810000,2018150
2010,1,13,21,3,52.810000,2018140
2010,1,13,22,3,52.810000,2018970
2010,1,13,23,3,52.810000,2019870
2010,1,14,0,3,52.810000,2020430
2010,1,14,1,3,52.810000,2020480
2010,1,14,2,3,52.810000,2019830
2010,1,14,3,3,52.810000,2018770
2010,1,14,4,3,52.810000,2017150
2010,1,14,5,3,52.810000,2015300
2010,1,14,6,3,52.810000,2013430
2010,1,14,7,3,52.810000,2012000
2010,1,14,8,3,52.810000,2011380
2010,1,14,9,3,52.810000,2011790
2010,1,14,10,3,52.810000,2013150
2010,1,14,11,3,52.810000,2015140
2010,1,14,12,3,52.810000,2017360
2010,1,14,13,3,52.810000,2019410
2010,1,14,14,3,52.810000,2020940
2010,1,14,15,3,52.810000,2021770
2010,1,14,16,3,52.810000,2021700
2010,1,14,17,3,52.810000,2021350
2010,1,14,18,3,52.810000,2020550
2010,1,14,19,3,52.810000,2019780
2010,1,14,20,3,52.810000,2019230
2010,1,14,21,3,52.810000,2019340
2010,1,14,22,3,52.810000,2020150
2010,1,14,23,3,52.810000,2021290
2010,1,15,0,3,52.810000,2022330
2010,1,15,1,3,52.810000,2022970
2010,1,15,2,3,52.810000,2023160
2010,1,15,3,3,52.810000,2022550
2010,1,15,4,3,52.810000,2021220
2010,1,15,5,3,52.810000,2019250
2010,1,15,6,3,52.810000,2017250
2010,1,15,7,3,52.810000,2015530
2010,1,15,8,3,52.810000,2014430
2010,1,15,9,3,52.810000,2014290
2010,1,15,10,3,52.810000,2015190
2010,1,15,11,3,52.810000,2016830
2010,1,15,12,3,52.810000,2018820
2010,1,15,13,3,52.810000,2020730
2010,1,15,14,3,52.810000,2022320
2010,1,15,15,3,52.810000,2023340
2010,1,15,16,3,52.810000,2023540
2010,1,15,17,3,52.810000,2023150
2010,1,15,18,3,52.810000,2022340
2010,1,15,19,3,52.810000,2021350
2010,1,15,20,3,52.810000,2020450
2010,1,15,21,3,52.810000,2020020
2010,1,15,22,3,52.810000,2020290
2010,1,15,23,3,52.810000,2021140
2010,1,16,0,3,52.810000,2022180
2010,1,16,1,3,52.810000,2022990
2010,1,16,2,3,52.810000,2023250
2010,1,16,3,3,52.810000,2022790
2010,1,16,4,3,52.810000,2021420
2010,1,16,5,3,52.810000,2019500
2010,1,16,6,3,52.810000,2017220
2010,1,16,7,3,52.810000,2015000
2010,1,16,8,3,52.810000,2013290
2010,1,16,9,3,52.810000,2012480
2010,1,16,10,3,52.810000,2012570
2010,1,16,11,3,52.810000,2013590
2010,1,16,12,3,52.810000,2015320
2010,1,16,13,3,52.810000,2017130
2010,1,16,14,3,52.810000,2018810
2010,1,16,15,3,52.810000,2019940
2010,1,16,16,3,52.810000,2020290
2010,1,16,17,3,52.810000,2019970
2010,1,16,18,3,52.810000,2019110
2010,1,16,19,3,52.810000,2017770
2010,1,16,20,3,52.810000,2016620
2010,1,16,21,3,52.810000,2015880
2010,1,16,22,3,52.810000,2015750
2010,1,16,23,3,52.810000,2016350
2010,1,17,0,3,52.810000,2017430
2010,1,17,1,3,52.810000,2018540
2010,1,17,2,3,52.810000,2019440
2010,1,17,3,3,52.810000,2019640
2010,1,17,4,3,52.810000,2018820
2010,1,17,5,3,52.810000,2017220
2010,1,17,6,3,52.810000,2015170
2010,1,17,7,3,52.810000,2013100
2010,1,17,8,3,52.810000,2011350
2010,1,17,9,3,52.810000,2010190
2010,1,17,10,3,52.810000,2009920
2010,1,17,11,3,52.810000,2010640
2010,1,17,12,3,52.810000,2012050
2010,1,17,13,3,52.810000,2013890
2010,1,17,14,3,52.810000,2015740
2010,1,17,15,3,52.810000,2017150
2010,1,17,16,3,52.810000,2017890
2010,1,17,17,3,52.810000,2017800
2010,1,17,18,3,52.810000,2017150
2010,1,17,19,3,52.810000,2015960
2010,1,17,20,3,52.810000,2014620
2010,1,17,21,3,52.810000,2013660
2010,1,17,22,3,52.810000,2013340
2010,1,17,23,3,52.810000,2013780
2010,1,18,0,3,52.810000,2014820
2010,1,18,1,3,52.810000,2016110
2010,1,18,2,3,52.810000,2017220
2010,1,18,3,3,52.810000,2017750
2010,1,18,4,3,52.810000,2017570
2010,1,18,5,3,52.810000,2016650
2010,1,18,6,3,52.810000,2015080
2010,1,18,7,3,52.810000,2013320
2010,1,18,8,3,52.810000,2011440
2010,1,18,9,3,52.810000,2010130
2010,1,18,10,3,52.810000,2009500
2010,1,18,11,3,52.810000,2009740
2010,1,18,12,3,52.810000,2010640
2010,1,18,13,3,52.810000,2012300
2010,1,18,14,3,52.810000,2014170
2010,1,18,15,3,52.810000,2015630
2010,1,18,16,3,52.810000,2016460
2010,1,18,17,3,52.810000,2016560
2010,1,18,18,3,52.810000,2015840
2010,1,18,19,3,52.810000,2014610
2010,1,18,20,3,52.810000,2012970
2010,1,18,21,3,52.810000,2011440
2010,1,18,22,3,52.810000,2010410
2010,1,18,23,3,52.810000,2010060
2010,1,19,0,3,52.810000,2010980
2010,1,19,1,3,52.810000,2012800
2010,1,19,2,3,52.810000,2014310
2010,1,19,3,3,52.810000,2015470
2010,1,19,4,3,52.810000,2015950
2010,1,19,5,3,52.810000,2015620
2010,1,19,6,3,52.810000,2014700
2010,1,19,7,3,52.810000,2013180
2010,1,19,8,3,52.810000,2011510
2010,1,19,9,3,52.810000,2009970
2010,1,19,10,3,52.810000,2009020
2010,1,19,11,3,52.810000,2008980
2010,1,19,12,3,52.810000,2009730
2010,1,19,13,3,52.810000,2011030
2010,1,19,14,3,52.810000,2012570
2010,1,19,15,3,52.810000,2013860
2010,1,19,16,3,52.810000,2014680
2010,1,19,17,3,52.810000,2015030
2010,1,19,18,3,52.810000,2014720
2010,1,19,19,3,52.810000,2013450
2010,1,19,20,3,52.810000,2011630
2010,1,19,21,3,52.810000,2009460
2010,1,19,22,3,52.810000,2007700
2010,1,19,23,3,52.810000,2007050
2010,1,20,0,3,52.810000,2007270
2010,1,20,1,3,52.810000,2008210
2010,1,20,2,3,52.810000,2009370
2010,1,20,3,3,52.810000,2010410
2010,1,20,4,3,52.810000,2011010
2010,1,20,5,3,52.810000,2011050
2010,1,20,6,3,52.810000,2010480
2010,1,20,7,3,52.810000,2009180
2010,1,20,8,3,52.810000,2007810
2010,1,20,9,3,52.810000,2006800
2010,1,20,10,3,52.810000,2006220
2010,1,20,11,3,52.810000,2006510
2010,1,20,12,3,52.810000,2007050
2010,1,20,13,3,52.810000,2008050
2010,1,20,14,3,52.810000,2009390
2010,1,20,15,3,52.810000,2010780
2010,1,20,16,3,52.810000,2011970
2010,1,20,17,3,52.810000,2012580
2010,1,20,18,3,52.810000,2012550
2010,1,20,19,3,52.810000,2011860
2010,1,20,20,3,52.810000,2010460
2010,1,20,21,3,52.810000,2008700
2010,1,20,22,3,52.810000,2007130
2010,1,20,23,3,52.810000,2006070
2010,1,21,0,3,52.810000,2005630
2010,1,21,1,3,52.810000,2005630
2010,1,21,2,3,52.810000,2006140
2010,1,21,3,3,52.810000,2007240
2010,1,21,4,3,52.810000,2008080
2010,1,21,5,3,52.810000,2008490
2010,1,21,6,3,52.810000,2008630
2010,1,21,7,3,52.810000,2008070
2010,1,21,8,3,52.810000,2006940
2010,1,21,9,3,52.810000,2005900
2010,1,21,10,3,52.810000,2004960
2010,1,21,11,3,52.810000,2004100
2010,1,21,12,3,52.810000,2003870
2010,1,21,13,3,52.810000,2003990
2010,1,21,14,3,52.810000,2004540
2010,1,21,15,3,52.810000,2005280
2010,1,21,16,3,52.810000,2006110
2010,1,21,17,3,52.810000,2006550
2010,1,21,18,3,52.810000,2006590
2010,1,21,19,3,52.810000,2005720
2010,1,21,20,3,52.810000,2004010
2010,1,21,21,3,52.810000,2002380
2010,1,21,22,3,52.810000,2000620
2010,1,21,23,3,52.810000,1999540
2010,1,22,0,3,52.810000,1999300
2010,1,22,1,3,52.810000,1999510
2010,1,22,2,3,52.810000,2000210
2010,1,22,3,3,52.810000,2001260
2010,1,22,4,3,52.810000,2002300
2010,1,22,5,3,52.810000,2003270
2010,1,22,6,3,52.810000,2003850
2010,1,22,7,3,52.810000,2003960
2010,1,22,8,3,52.810000,2003870
2010,1,22,9,3,52.810000,2003500
2010,1,22,10,3,52.810000,2003130
2010,1,22,11,3,52.810000,2002700
2010,1,22,12,3,52.810000,2002760
2010,1,22,13,3,52.810000,2003390
2010,1,22,14,3,52.810000,2004240
2010,1,22,15,3,52.810000,2005350
2010,1,22,16,3,52.810000,2006550
2010,1,22,17,3,52.810000,2007610
2010,1,22,18,3,52.810000,2008330
2010,1,22,19,3,52.810000,2008490
2010,1,22,20,3,52.810000,2008050
2010,1,22,21,3,52.810000,2006940
2010,1,22,22,3,52.810000,2005790
2010,1,22,23,3,52.810000,2004800
2010,1,23,0,3,52.810000,2004240
2010,1,23,1,3,52.810000,2003760
2010,1,23,2,3,52.810000,2003760
2010,1,23,3,3,52.810000,2004310
2010,1,23,4,3,52.810000,2005190
2010,1,23,5,3,52.810000,2006160
2010,1,23,6,3,52.810000,2007150
2010,1,23,7,3,52.810000,2007800
2010,1,23,8,3,52.810000,2008190
2010,1,23,9,3,52.810000,2008470
2010,1,23,10,3,52.810000,2008600
2010,1,23,11,3,52.810000,2008740
2010,1,23,12,3,52.810000,2009000
2010,1,23,13,3,52.810000,2009530
2010,1,23,14,3,52.810000,2010340
2010,1,23,15,3,52.810000,2011280
2010,1,23,16,3,52.810000,2012270
2010,1,23,17,3,52.810000,2013180
2010,1,23,18,3,52.810000,2014050
2010,1,23,19,3,52.810000,2014590
2010,1,23,20,3,52.810000,2014520
2010,1,23,21,3,52.810000,2014010
2010,1,23,22,3,52.810000,2013270
2010,1,23,23,3,52.810000,2012410
2010,1,24,0,3,52.810000,2011590
2010,1,24,1,3,52.810000,2010870
2010,1,24,2,3,52.810000,2010500
2010,1,24,3,3,52.810000,2010500
2010,1,24,4,3,52.810000,2011010
2010,1,24,5,3,52.810000,2011910
2010,1,24,6,3,52.810000,2013010
2010,1,24,7,3,52.810000,2014150
2010,1,24,8,3,52.810000,2015160
2010,1,24,9,3,52.810000,2015910
2010,1,24,10,3,52.810000,2016530
2010,1,24,11,3,52.810000,2016900
2010,1,24,12,3,52.810000,2017040
2010,1,24,13,3,52.810000,2017100
2010,1,24,14,3,52.810000,2017270
2010,1,24,15,3,52.810000,2017480
2010,1,24,16,3,52.810000,2017930
2010,1,24,17,3,52.810000,2018520
2010,1,24,18,3,52.810000,2019180
2010,1,24,19,3,52.810000,2019600
